This demonstration page uses our WeatherBlox Daily Observations layout. Learn more.

Left ArrowRight Arrow

39.92423, -83.80882

Hourly Observations for July 9, 2019

Temp ( °F °C ) Dew Point ( °F °C ) Humidity (%) Winds ( mph kmh ) Pressure ( in mb ) Visibility ( mi km ) Precip ( " mm )
12:56 am 00:56 Clear 65 18.3 57 13.9 76 76 ENE 6 9 30.04 1017 10 16.0934 N/A
1:56 am 01:56 Mostly Clear 64 17.8 56 13.3 75 75 NE 6 9 30.03 1017 10 16.0934 N/A
2:56 am 02:56 Clear 63 17.2 57 13.9 81 81 ENE 5 7 30.03 1017 10 16.0934 N/A
3:56 am 03:56 Clear 63 17.2 57 13.9 81 81 NE 5 7 30.02 1017 10 16.0934 N/A
4:56 am 04:56 Clear 62 16.7 57 13.9 84 84 ENE 3 6 30.03 1017 10 16.0934 N/A
5:56 am 05:56 Clear 60 15.6 56 13.3 86 86 NE 5 7 30.04 1017 10 16.0934 N/A
6:56 am 06:56 Sunny 62 16.7 57 13.9 84 84 NE 3 6 30.05 1018 10 16.0934 N/A
7:56 am 07:56 Sunny 66 18.9 59 15 78 78 ENE 3 6 30.06 1018 10 16.0934 N/A
8:56 am 08:56 Sunny 72 22.2 61 16.1 68 68 E 5 7 30.08 1019 10 16.0934 N/A
10:56 am 10:56 Sunny 79 26.1 64 17.8 60 60 NNE 5 7 30.06 1018 10 16.0934 N/A
11:56 am 11:56 Sunny 82 27.8 65 18.3 56 56 N N/A 30.05 1018 10 16.0934 N/A
12:56 pm 12:56 Sunny 83 28.3 66 18.9 57 57 NNW 7 11 30.04 1017 10 16.0934 N/A
1:56 pm 13:56 Mostly Sunny 84 28.9 67 19.4 57 57 N N/A 30.04 1017 10 16.0934 N/A
2:56 pm 14:56 Mostly Cloudy 85 29.4 66 18.9 53 53 VRB 3 6 30.02 1017 10 16.0934 N/A
3:56 pm 15:56 Partly Cloudy 86 30 68 20 55 55 VRB 5 7 30.01 1016 10 16.0934 N/A
4:56 pm 16:56 Partly Cloudy 87 30.6 68 20 53 53 ESE 6 9 30.01 1016 10 16.0934 N/A
5:56 pm 17:56 Mostly Sunny 86 30 66 18.9 51 51 SSE 5 7 30 1016 10 16.0934 N/A
6:56 pm 18:56 Sunny 85 29.4 66 18.9 53 53 SE 3 6 29.99 1016 10 16.0934 N/A
7:56 pm 19:56 Sunny 85 29.4 66 18.9 53 53 N N/A 30 1016 10 16.0934 N/A
8:56 pm 20:56 Sunny 81 27.2 70 21.1 69 69 N N/A 30 1016 10 16.0934 N/A
9:56 pm 21:56 Clear 76 24.4 71 21.7 85 85 N N/A 30.01 1016 10 16.0934 N/A
10:56 pm 22:56 Clear 74 23.3 70 21.1 88 88 N N/A 30.01 1016 10 16.0934 N/A
11:56 pm 23:56 Clear 72 22.2 68 20 87 87 N N/A 30.01 1016 10 16.0934 N/A

Powered by AerisWeather